RH
49 45 54 73 67 78 85 96 98 89 89 93 94 93 94 95 94 92 90 87 81 75 66 63 58 53 49 47 48 49 52 53 54 57 56 60 62 64
59 53 69 83 86 84 99 97 96 91 95 97 97 95 90 87 82 81 80 75 67 61 57 50 46 37 32 31 34 39 43 45 49 52 54 56 60 61
57 62 80 90 96 90 87 91 99 98 99 98 95 88 86 81 77 69 60 52 45 34 26 22 21 20 20 23 27 29 35 40 44 52 53 58 55 56
60 96 98 98 96 95 95 99 99 94 92 84 85 84 74 56 44 33 27 19 15 14 14 15 17 20 22 23 24 26 30 36 43 44 55 57 60 64
90 98 99 99 99 99 99 99 97 92 82 67 52 38 29 20 14 13 14 15 16 18 19 19 19 19 22 24 28 29 30 34 40 47 50 56 60 62
97 97 93 90 88 79 70 65 56 42 29 18 14 13 14 14 15 16 16 18 20 20 20 20 20 23 25 24 26 32 32 32 32 44 50 50 62 70
62 57 51 37 20 15 12 11 11 12 12 13 15 16 17 18 20 20 21 21 22 23 23 25 23 24 22 23 27 28 31 33 34 36 46 48 63 69
30 18 11 10 10 10 11 12 14 16 18 19 21 21 21 21 22 24 26 27 32 29 32 30 29 26 21 24 24 30 34 35 38 36 42 51 54 64
10 11 10 11 12 12 14 16 19 21 23 24 23 23 23 23 26 28 29 31 33 31 30 32 31 27 27 28 27 29 36 39 42 44 46 45 54 56
11 12 12 12 13 15 18 20 22 23 22 22 24 23 25 28 32 33 33 33 34 33 33 38 32 31 34 33 36 37 42 44 45 46 47 49 48 72
12 12 13 15 17 18 20 22 23 24 26 27 27 28 28 29 33 36 35 36 37 39 33 40 36 37 35 37 37 44 55 54 52 51 55 68 73 69
13 14 16 17 18 21 23 26 29 31 31 30 31 31 32 34 39 40 39 40 42 42 40 44 39 44 44 43 44 49 54 55 56 57 66 78 85 81
15 18 20 22 25 28 30 32 35 38 33 33 33 34 36 37 34 33 35 36 40 41 45 48 43 47 53 51 49 56 58 60 62 66 83 83 92 89
24 27 30 33 36 37 37 37 41 37 35 33 31 30 30 29 29 32 33 36 40 45 49 53 51 55 57 55 56 66 74 79 81 76 88 93 96 93
31 36 39 41 40 38 38 36 35 31 30 30 33 33 32 33 34 37 36 38 44 50 56 59 60 58 60 62 61 66 76 85 91 92 93 96 95 92
33 37 38 38 38 39 37 36 33 33 34 35 38 38 38 39 41 42 41 43 46 53 59 59 62 64 68 68 70 74 84 87 89 92 94 95 97 90
35 38 39 40 40 40 38 37 37 37 37 39 41 41 45 46 46 47 49 50 53 59 62 62 68 68 69 70 75 83 90 92 93 94 93 92 85 78
40 41 41 44 42 38 39 39 39 40 43 43 43 48 51 53 54 53 54 54 57 55 60 64 70 71 78 83 80 84 90 94 97 97 97 82 75 71
46 47 46 45 41 42 43 44 44 47 46 48 53 57 62 62 61 56 53 55 54 57 63 67 75 74 87 89 90 89 91 96 96 98 92 78 78 74
52 52 53 48 45 46 47 49 51 51 57 58 63 66 68 67 58 57 52 52 57 61 68 73 76 76 87 91 94 93 95 94 91 91 83 79 85 84
65 59 51 49 49 51 57 58 59 63 60 64 66 68 69 63 61 55 53 57 62 66 75 80 78 79 90 94 93 92 94 89 89 82 82 92 91 85
63 58 56 56 55 65 65 63 67 64 64 61 65 68 68 63 55 55 58 61 67 73 78 85 84 86 92 95 96 97 94 89 88 84 96 95 93 89
64 63 63 67 74 72 67 70 69 65 62 61 62 69 66 56 57 60 63 69 74 75 82 84 85 89 88 95 97 97 96 90 91 97 96 95 88 79